"read_dt","SO2 (ppb)","flags","PMT voltage (V)","lamp voltage (V)","lamp intensity (Hz)","internal temp (C)","react chamber temp (C)","sample flow (l/min)","pres (mmHg)","SO2 bkg (ppb)","SO2 coefficient"
2017-04-19 00:00:00,1560E-3,5C000400,-0724,0838,12097,031.0,045.5,0.215,754.5,01.17,0.508
2017-04-19 00:01:00,1798E-3,5C000400,-0724,0837,12101,031.0,045.5,0.215,754.5,01.17,0.508
2017-04-19 00:02:00,1768E-3,5C000400,-0724,0839,12105,031.0,045.5,0.215,754.5,01.17,0.508
2017-04-19 00:03:00,1658E-3,5C000400,-0724,0837,11921,031.0,045.5,0.215,754.5,01.17,0.508
2017-04-19 00:04:00,1744E-3,5C000400,-0724,0838,12095,031.0,045.5,0.215,754.5,01.17,0.508
2017-04-19 00:05:00,1617E-3,5C000400,-0724,0838,12064,031.0,045.5,0.215,754.5,01.17,0.508
2017-04-19 00:06:00,1721E-3,5C000400,-0724,0837,11886,031.0,045.5,0.215,754.5,01.17,0.508
2017-04-19 00:07:00,1709E-3,5C000400,-0724,0838,12126,031.0,045.5,0.215,754.5,01.17,0.508
2017-04-19 00:08:00,1673E-3,5C000400,-0724,0838,12087,031.0,045.5,0.215,754.5,01.17,0.508
2017-04-19 00:09:00,1685E-3,5C000400,-0724,0838,12084,031.0,045.5,0.215,754.5,01.17,0.508
2017-04-19 00:10:00,1631E-3,5C000400,-0724,0838,12007,031.0,045.5,0.215,754.5,01.17,0.508
2017-04-19 00:11:00,1737E-3,5C000400,-0724,0839,12021,031.0,045.5,0.215,754.5,01.17,0.508
2017-04-19 00:12:00,1807E-3,5C000400,-0724,0838,12042,031.0,045.6,0.215,754.5,01.17,0.508
2017-04-19 00:13:00,1563E-3,5C000400,-0724,0838,12015,031.0,045.6,0.215,754.5,01.17,0.508
2017-04-19 00:14:00,1679E-3,5C000400,-0724,0838,12122,031.0,045.5,0.215,754.4,01.17,0.508
2017-04-19 00:15:00,1741E-3,5C000400,-0724,0837,12084,031.0,045.5,0.215,754.4,01.17,0.508
2017-04-19 00:16:00,1671E-3,5C000400,-0724,0837,12046,031.1,045.5,0.215,754.4,01.17,0.508
2017-04-19 00:17:00,1677E-3,5C000400,-0724,0837,12050,031.1,045.5,0.215,754.4,01.17,0.508
2017-04-19 00:18:00,1718E-3,5C000400,-0724,0838,12196,031.1,045.5,0.215,754.4,01.17,0.508
2017-04-19 00:19:00,1777E-3,5C000400,-0724,0838,12026,031.1,045.5,0.215,754.4,01.17,0.508
2017-04-19 00:20:00,1648E-3,5C000400,-0724,0838,11956,031.1,045.5,0.215,754.4,01.17,0.508
2017-04-19 00:21:00,1654E-3,5C000400,-0724,0837,11870,031.1,045.5,0.215,754.4,01.17,0.508
2017-04-19 00:22:00,1709E-3,5C000400,-0724,0838,12071,031.1,045.5,0.215,754.4,01.17,0.508
2017-04-19 00:23:00,1639E-3,5C000400,-0724,0838,12019,031.1,045.5,0.215,754.4,01.17,0.508
2017-04-19 00:24:00,1744E-3,5C000400,-0724,0838,12046,031.1,045.5,0.215,754.4,01.17,0.508
2017-04-19 00:25:00,1569E-3,5C000400,-0724,0839,11984,031.1,045.5,0.215,754.4,01.17,0.508
2017-04-19 00:26:00,1594E-3,5C000400,-0724,0838,12069,031.1,045.6,0.215,754.3,01.17,0.508
2017-04-19 00:27:00,1658E-3,5C000400,-0724,0837,12032,031.1,045.6,0.214,754.4,01.17,0.508
2017-04-19 00:28:00,1711E-3,5C000400,-0724,0838,12060,031.1,045.5,0.214,754.4,01.17,0.508
2017-04-19 00:29:00,1633E-3,5C000400,-0724,0837,11959,031.1,045.5,0.215,754.3,01.17,0.508
2017-04-19 00:30:00,1615E-3,5C000400,-0724,0838,12166,031.2,045.6,0.215,754.3,01.17,0.508
2017-04-19 00:31:00,1658E-3,5C000400,-0724,0838,12097,031.1,045.6,0.215,754.3,01.17,0.508
2017-04-19 00:32:00,1772E-3,5C000400,-0724,0839,12159,031.2,045.5,0.215,754.3,01.17,0.508
2017-04-19 00:33:00,1670E-3,5C000400,-0724,0838,12185,031.2,045.5,0.215,754.3,01.17,0.508
2017-04-19 00:34:00,1723E-3,5C000400,-0724,0838,12063,031.2,045.5,0.215,754.3,01.17,0.508
2017-04-19 00:35:00,1671E-3,5C000400,-0724,0838,12045,031.2,045.5,0.215,754.4,01.17,0.508
2017-04-19 00:36:00,1722E-3,5C000400,-0724,0838,12152,031.2,045.6,0.215,754.3,01.17,0.508
2017-04-19 00:37:00,1615E-3,5C000400,-0724,0837,11985,031.2,045.6,0.215,754.3,01.17,0.508
2017-04-19 00:38:00,1750E-3,5C000400,-0724,0838,12011,031.2,045.5,0.215,754.3,01.17,0.508
2017-04-19 00:39:00,1600E-3,5C000400,-0724,0837,11877,031.2,045.5,0.215,754.3,01.17,0.508
2017-04-19 00:40:00,1603E-3,5C000400,-0724,0838,12110,031.2,045.5,0.215,754.3,01.17,0.508
2017-04-19 00:41:00,1665E-3,5C000400,-0724,0838,12010,031.2,045.6,0.214,754.3,01.17,0.508
2017-04-19 00:42:00,1654E-3,5C000400,-0724,0838,12038,031.2,045.5,0.214,754.3,01.17,0.508
2017-04-19 00:43:00,1547E-3,5C000400,-0724,0838,12118,031.2,045.5,0.214,754.3,01.17,0.508
2017-04-19 00:44:00,1772E-3,5C000400,-0724,0838,12062,031.2,045.5,0.214,754.3,01.17,0.508
2017-04-19 00:45:00,1674E-3,5C000400,-0724,0838,12001,031.3,045.5,0.215,754.3,01.17,0.508
2017-04-19 00:46:00,1754E-3,5C000400,-0724,0838,12170,031.3,045.6,0.215,754.3,01.17,0.508
2017-04-19 00:47:00,1573E-3,5C000400,-0724,0838,12092,031.3,045.6,0.215,754.3,01.17,0.508
2017-04-19 00:48:00,1669E-3,5C000400,-0724,0838,12049,031.3,045.5,0.215,754.3,01.17,0.508
2017-04-19 00:49:00,1684E-3,5C000400,-0724,0838,12039,031.3,045.5,0.215,754.3,01.17,0.508
2017-04-19 00:50:00,1602E-3,5C000400,-0724,0838,12028,031.3,045.6,0.214,754.3,01.17,0.508
2017-04-19 00:51:00,1708E-3,5C000400,-0724,0838,12066,031.3,045.6,0.214,754.3,01.17,0.508
2017-04-19 00:52:00,1760E-3,5C000400,-0724,0838,11984,031.3,045.5,0.214,754.3,01.17,0.508
2017-04-19 00:53:00,1611E-3,5C000400,-0724,0837,12112,031.3,045.6,0.214,754.3,01.17,0.508
2017-04-19 00:54:00,1615E-3,5C000400,-0724,0837,12095,031.3,045.5,0.214,754.3,01.17,0.508
2017-04-19 00:55:00,1664E-3,5C000400,-0724,0837,12146,031.3,045.5,0.214,754.3,01.17,0.508
2017-04-19 00:56:00,1652E-3,5C000400,-0724,0837,11872,031.3,045.5,0.214,754.2,01.17,0.508
2017-04-19 00:57:00,1762E-3,5C000400,-0724,0838,12166,031.3,045.5,0.214,754.2,01.17,0.508
2017-04-19 00:58:00,1805E-3,5C000400,-0724,0838,12087,031.3,045.5,0.214,754.2,01.17,0.508
2017-04-19 00:59:00,1566E-3,5C000400,-0724,0838,12091,031.3,045.5,0.214,754.2,01.17,0.508
2017-04-19 01:00:00,1657E-3,5C000400,-0724,0838,12015,031.3,045.6,0.214,754.2,01.17,0.508
2017-04-19 01:01:00,1628E-3,5C000400,-0724,0839,12075,031.3,045.5,0.214,754.2,01.17,0.508
2017-04-19 01:02:00,1751E-3,5C000400,-0724,0838,12002,031.3,045.5,0.214,754.2,01.17,0.508
2017-04-19 01:03:00,1686E-3,5C000400,-0724,0838,12124,031.4,045.6,0.214,754.2,01.17,0.508
2017-04-19 01:04:00,1747E-3,5C000400,-0724,0838,12039,031.4,045.6,0.214,754.3,01.17,0.508
2017-04-19 01:05:00,1760E-3,5C000400,-0724,0837,12080,031.4,045.6,0.214,754.3,01.17,0.508
2017-04-19 01:06:00,1672E-3,5C000400,-0724,0838,12162,031.4,045.5,0.214,754.3,01.17,0.508
2017-04-19 01:07:00,1555E-3,5C000400,-0724,0838,12027,031.4,045.6,0.214,754.3,01.17,0.508
2017-04-19 01:08:00,1650E-3,5C000400,-0724,0838,12099,031.4,045.5,0.214,754.3,01.17,0.508
2017-04-19 01:09:00,1751E-3,5C000400,-0724,0838,11991,031.4,045.6,0.214,754.2,01.17,0.508
2017-04-19 01:10:00,1542E-3,5C000400,-0724,0838,11988,031.4,045.6,0.214,754.2,01.17,0.508
2017-04-19 01:11:00,1700E-3,5C000400,-0724,0837,12022,031.4,045.5,0.214,754.2,01.17,0.508
2017-04-19 01:12:00,1635E-3,5C000400,-0724,0838,11978,031.4,045.5,0.214,754.2,01.17,0.508
2017-04-19 01:13:00,1750E-3,5C000400,-0724,0837,11972,031.4,045.5,0.214,754.2,01.17,0.508
2017-04-19 01:14:00,1730E-3,5C000400,-0724,0838,12082,031.4,045.6,0.214,754.2,01.17,0.508
2017-04-19 01:15:00,1622E-3,5C000400,-0724,0837,12011,031.4,045.6,0.214,754.2,01.17,0.508
2017-04-19 01:16:00,1681E-3,5C000400,-0724,0838,12117,031.4,045.6,0.214,754.2,01.17,0.508
2017-04-19 01:17:00,1577E-3,5C000400,-0724,0838,12057,031.4,045.5,0.214,754.2,01.17,0.508
2017-04-19 01:18:00,1684E-3,5C000400,-0724,0837,12009,031.5,045.5,0.214,754.2,01.17,0.508
2017-04-19 01:19:00,1689E-3,5C000400,-0724,0838,12014,031.4,045.6,0.214,754.1,01.17,0.508
2017-04-19 01:20:00,1605E-3,5C000400,-0724,0838,12023,031.5,045.6,0.214,754.1,01.17,0.508
2017-04-19 01:21:00,1635E-3,5C000400,-0724,0837,11913,031.5,045.6,0.214,754.1,01.17,0.508
2017-04-19 01:22:00,1774E-3,5C000400,-0724,0838,12030,031.5,045.6,0.214,754.1,01.17,0.508
2017-04-19 01:23:00,1670E-3,5C000400,-0724,0838,11979,031.5,045.6,0.214,754.2,01.17,0.508
2017-04-19 01:24:00,1641E-3,5C000400,-0724,0838,12066,031.5,045.5,0.214,754.2,01.17,0.508
2017-04-19 01:25:00,1731E-3,5C000400,-0724,0837,12003,031.5,045.5,0.214,754.1,01.17,0.508
2017-04-19 01:26:00,1708E-3,5C000400,-0724,0838,12051,031.5,045.5,0.214,754.1,01.17,0.508
2017-04-19 01:27:00,1609E-3,5C000400,-0724,0838,12023,031.5,045.6,0.214,754.2,01.17,0.508
2017-04-19 01:28:00,1663E-3,5C000400,-0724,0838,12061,031.5,045.5,0.214,754.1,01.17,0.508
2017-04-19 01:29:00,1610E-3,5C000400,-0724,0838,12050,031.5,045.5,0.214,754.1,01.17,0.508
2017-04-19 01:30:00,1638E-3,5C000400,-0724,0839,12148,031.5,045.5,0.214,754.2,01.17,0.508
2017-04-19 01:31:00,1673E-3,5C000400,-0724,0838,12098,031.5,045.6,0.214,754.1,01.17,0.508
2017-04-19 01:32:00,1841E-3,5C000400,-0724,0837,12055,031.5,045.6,0.214,754.1,01.17,0.508
2017-04-19 01:33:00,1674E-3,5C000400,-0724,0838,12022,031.6,045.6,0.214,754.1,01.17,0.508
2017-04-19 01:34:00,1764E-3,5C000400,-0724,0838,12086,031.6,045.6,0.214,754.1,01.17,0.508
2017-04-19 01:35:00,1622E-3,5C000400,-0724,0838,11980,031.6,045.6,0.214,754.2,01.17,0.508
2017-04-19 01:36:00,1741E-3,5C000400,-0724,0839,12016,031.6,045.6,0.214,754.2,01.17,0.508
2017-04-19 01:37:00,1803E-3,5C000400,-0724,0838,12025,031.6,045.6,0.214,754.2,01.17,0.508
2017-04-19 01:38:00,1745E-3,5C000400,-0724,0839,12077,031.6,045.6,0.214,754.2,01.17,0.508
2017-04-19 01:39:00,1773E-3,5C000400,-0724,0838,12080,031.6,045.6,0.214,754.2,01.17,0.508
2017-04-19 01:40:00,1661E-3,5C000400,-0724,0838,11956,031.6,045.6,0.214,754.2,01.17,0.508
2017-04-19 01:41:00,1547E-3,5C000400,-0724,0838,12017,031.6,045.6,0.214,754.2,01.17,0.508
2017-04-19 01:42:00,1734E-3,5C000400,-0724,0838,12199,031.6,045.6,0.214,754.2,01.17,0.508
2017-04-19 01:43:00,1841E-3,5C000400,-0724,0839,11883,031.6,045.6,0.214,754.2,01.17,0.508
2017-04-19 01:44:00,1666E-3,5C000400,-0724,0838,12132,031.6,045.6,0.214,754.2,01.17,0.508
2017-04-19 01:45:00,1564E-3,5C000400,-0724,0839,12052,031.7,045.6,0.213,754.2,01.17,0.508
2017-04-19 01:46:00,1758E-3,5C000400,-0724,0839,12002,031.6,045.6,0.213,754.2,01.17,0.508
2017-04-19 01:47:00,1677E-3,5C000400,-0724,0838,11954,031.7,045.5,0.213,754.2,01.17,0.508
2017-04-19 01:48:00,1779E-3,5C000400,-0724,0838,12043,031.7,045.6,0.213,754.2,01.17,0.508
2017-04-19 01:49:00,1742E-3,5C000400,-0724,0838,12166,031.7,045.5,0.213,754.2,01.17,0.508
2017-04-19 01:50:00,1736E-3,5C000400,-0724,0839,12041,031.7,045.6,0.213,754.2,01.17,0.508
2017-04-19 01:51:00,1688E-3,5C000400,-0724,0839,11937,031.7,045.6,0.213,754.2,01.17,0.508
2017-04-19 01:52:00,1693E-3,5C000400,-0724,0838,11995,031.7,045.6,0.213,754.2,01.17,0.508
2017-04-19 01:53:00,1676E-3,5C000400,-0724,0839,12073,031.7,045.6,0.213,754.2,01.17,0.508
2017-04-19 01:54:00,1747E-3,5C000400,-0724,0838,11968,031.7,045.6,0.213,754.2,01.17,0.508
2017-04-19 01:55:00,1850E-3,5C000400,-0724,0839,12037,031.7,045.6,0.213,754.2,01.17,0.508
2017-04-19 01:56:00,1801E-3,5C000400,-0724,0839,12167,031.7,045.6,0.213,754.2,01.17,0.508
2017-04-19 01:57:00,1700E-3,5C000400,-0724,0839,12098,031.7,045.6,0.213,754.2,01.17,0.508
2017-04-19 01:58:00,1690E-3,5C000400,-0724,0838,12044,031.7,045.6,0.213,754.2,01.17,0.508
2017-04-19 01:59:00,1824E-3,5C000400,-0724,0837,12026,031.8,045.6,0.213,754.2,01.17,0.508
2017-04-19 02:00:00,1694E-3,5C000400,-0724,0838,12066,031.8,045.6,0.213,754.2,01.17,0.508
2017-04-19 02:01:00,1601E-3,5C000400,-0724,0838,11944,031.8,045.6,0.213,754.1,01.17,0.508
2017-04-19 02:02:00,1764E-3,5C000400,-0724,0839,12136,031.8,045.6,0.213,754.1,01.17,0.508
2017-04-19 02:03:00,1523E-3,5C000400,-0724,0838,12088,031.8,045.6,0.213,754.1,01.17,0.508
2017-04-19 02:04:00,1740E-3,5C000400,-0724,0838,12028,031.8,045.6,0.213,754.1,01.17,0.508
2017-04-19 02:05:00,1617E-3,5C000400,-0724,0838,11979,031.8,045.6,0.213,754.1,01.17,0.508
2017-04-19 02:06:00,1710E-3,5C000400,-0724,0838,12085,031.8,045.6,0.213,754.1,01.17,0.508
2017-04-19 02:07:00,1554E-3,5C000400,-0724,0838,12074,031.8,045.6,0.213,754.1,01.17,0.508
2017-04-19 02:08:00,1830E-3,5C000400,-0724,0838,11997,031.8,045.6,0.213,754.1,01.17,0.508
2017-04-19 02:09:00,1645E-3,5C000400,-0724,0839,12131,031.8,045.6,0.213,754.1,01.17,0.508
2017-04-19 02:10:00,1771E-3,5C000400,-0724,0838,11943,031.8,045.6,0.213,754.1,01.17,0.508
2017-04-19 02:11:00,1754E-3,5C000400,-0724,0838,11964,031.9,045.6,0.213,754.1,01.17,0.508
2017-04-19 02:12:00,1693E-3,5C000400,-0724,0839,12191,031.8,045.6,0.213,754.1,01.17,0.508
2017-04-19 02:13:00,1674E-3,5C000400,-0724,0838,11973,031.9,045.6,0.213,754.1,01.17,0.508
2017-04-19 02:14:00,1732E-3,5C000400,-0724,0839,12047,031.9,045.6,0.213,754.1,01.17,0.508
2017-04-19 02:15:00,1763E-3,5C000400,-0724,0838,11963,031.9,045.6,0.213,754.2,01.17,0.508
2017-04-19 02:16:00,1579E-3,5C000400,-0724,0839,12058,031.9,045.6,0.213,754.1,01.17,0.508
2017-04-19 02:17:00,1697E-3,5C000400,-0724,0839,12139,031.9,045.6,0.213,754.2,01.17,0.508
2017-04-19 02:18:00,1770E-3,5C000400,-0724,0838,12122,031.9,045.6,0.213,754.1,01.17,0.508
2017-04-19 02:19:00,1682E-3,5C000400,-0724,0838,12061,031.9,045.6,0.213,754.1,01.17,0.508
2017-04-19 02:20:00,1641E-3,5C000400,-0724,0838,12100,031.9,045.6,0.213,754.1,01.17,0.508
2017-04-19 02:21:00,1769E-3,5C000400,-0724,0839,12010,031.9,045.6,0.213,754.1,01.17,0.508
2017-04-19 02:22:00,1738E-3,5C000400,-0724,0838,12118,031.9,045.6,0.213,754.1,01.17,0.508
2017-04-19 02:23:00,1691E-3,5C000400,-0724,0838,12107,031.9,045.6,0.213,754.1,01.17,0.508
2017-04-19 02:24:00,1728E-3,5C000400,-0724,0838,12073,031.9,045.6,0.213,754.1,01.17,0.508
2017-04-19 02:25:00,1691E-3,5C000400,-0724,0838,12084,031.9,045.6,0.213,754.1,01.17,0.508
2017-04-19 02:26:00,1650E-3,5C000400,-0724,0838,12139,032.0,045.6,0.213,754.1,01.17,0.508
2017-04-19 02:27:00,1676E-3,5C000400,-0724,0838,11990,032.0,045.6,0.213,754.1,01.17,0.508
2017-04-19 02:28:00,1640E-3,5C000400,-0724,0838,11957,032.0,045.6,0.213,754.1,01.17,0.508
2017-04-19 02:29:00,1618E-3,5C000400,-0724,0838,12110,032.0,045.6,0.213,754.1,01.17,0.508
2017-04-19 02:30:00,1782E-3,5C000400,-0724,0838,12108,032.0,045.6,0.213,754.1,01.17,0.508
2017-04-19 02:31:00,1787E-3,5C000400,-0724,0838,11997,032.0,045.6,0.213,754.1,01.17,0.508
2017-04-19 02:32:00,1743E-3,5C000400,-0724,0839,11892,032.0,045.6,0.213,754.0,01.17,0.508
2017-04-19 02:33:00,1679E-3,5C000400,-0724,0838,12138,032.0,045.6,0.213,754.0,01.17,0.508
2017-04-19 02:34:00,1936E-3,5C000400,-0724,0838,12002,032.0,045.6,0.213,754.0,01.17,0.508
2017-04-19 02:35:00,1717E-3,5C000400,-0724,0838,12001,032.0,045.6,0.213,754.1,01.17,0.508
2017-04-19 02:36:00,1620E-3,5C000400,-0724,0838,11990,032.0,045.6,0.213,754.1,01.17,0.508
2017-04-19 02:37:00,1770E-3,5C000400,-0724,0838,11921,032.0,045.6,0.213,754.1,01.17,0.508
2017-04-19 02:38:00,1725E-3,5C000400,-0724,0838,12089,032.1,045.6,0.213,754.1,01.17,0.508
2017-04-19 02:39:00,1565E-3,5C000400,-0724,0839,12070,032.1,045.6,0.213,754.1,01.17,0.508
2017-04-19 02:40:00,1590E-3,5C000400,-0724,0840,12102,032.1,045.6,0.212,754.1,01.17,0.508
2017-04-19 02:41:00,1774E-3,5C000400,-0724,0838,11910,032.1,045.6,0.212,754.1,01.17,0.508
2017-04-19 02:42:00,1626E-3,5C000400,-0724,0839,12017,032.1,045.6,0.213,754.1,01.17,0.508
2017-04-19 02:43:00,1694E-3,5C000400,-0724,0838,12112,032.1,045.6,0.212,754.1,01.17,0.508
2017-04-19 02:44:00,1748E-3,5C000400,-0724,0838,12092,032.1,045.6,0.212,754.1,01.17,0.508
2017-04-19 02:45:00,1690E-3,5C000400,-0724,0838,12110,032.1,045.6,0.212,754.1,01.17,0.508
2017-04-19 02:46:00,1684E-3,5C000400,-0724,0838,11962,032.1,045.6,0.212,754.1,01.17,0.508
2017-04-19 02:47:00,1736E-3,5C000400,-0724,0838,11939,032.2,045.6,0.212,754.1,01.17,0.508
2017-04-19 02:48:00,1682E-3,5C000400,-0724,0838,12056,032.2,045.6,0.212,754.1,01.17,0.508
2017-04-19 02:49:00,1539E-3,5C000400,-0724,0839,11957,032.2,045.6,0.212,754.1,01.17,0.508
2017-04-19 02:50:00,1760E-3,5C000400,-0724,0838,12025,032.2,045.6,0.212,754.1,01.17,0.508
2017-04-19 02:51:00,1700E-3,5C000400,-0724,0839,12078,032.2,045.6,0.212,754.1,01.17,0.508
2017-04-19 02:52:00,1748E-3,5C000400,-0724,0838,11955,032.2,045.6,0.212,754.1,01.17,0.508
2017-04-19 02:53:00,1706E-3,5C000400,-0724,0839,12048,032.2,045.6,0.213,754.1,01.17,0.508
2017-04-19 02:54:00,1660E-3,5C000400,-0724,0839,12047,032.2,045.6,0.213,754.1,01.17,0.508
2017-04-19 02:55:00,1792E-3,5C000400,-0724,0839,12026,032.2,045.6,0.212,754.1,01.17,0.508
2017-04-19 02:56:00,1666E-3,5C000400,-0724,0838,12000,032.2,045.6,0.212,754.0,01.17,0.508
2017-04-19 02:57:00,1740E-3,5C000400,-0724,0838,11915,032.2,045.6,0.212,754.0,01.17,0.508
2017-04-19 02:58:00,1763E-3,5C000400,-0724,0839,12048,032.3,045.6,0.212,754.0,01.17,0.508
2017-04-19 02:59:00,1512E-3,5C000400,-0724,0839,12099,032.3,045.6,0.212,754.0,01.17,0.508
2017-04-19 03:00:00,1659E-3,5C000400,-0724,0838,11998,032.3,045.6,0.212,754.0,01.17,0.508
2017-04-19 03:01:00,1711E-3,5C000400,-0724,0839,11945,032.3,045.6,0.212,754.0,01.17,0.508
2017-04-19 03:02:00,1659E-3,5C000400,-0724,0838,12095,032.3,045.6,0.212,754.0,01.17,0.508
2017-04-19 03:03:00,1682E-3,5C000400,-0724,0838,11935,032.3,045.6,0.212,754.0,01.17,0.508
2017-04-19 03:04:00,1652E-3,5C000400,-0724,0838,12038,032.3,045.6,0.212,754.0,01.17,0.508
2017-04-19 03:05:00,1658E-3,5C000400,-0724,0838,11992,032.3,045.6,0.212,754.0,01.17,0.508
2017-04-19 03:06:00,1768E-3,5C000400,-0724,0839,12120,032.3,045.6,0.212,754.0,01.17,0.508
2017-04-19 03:07:00,1767E-3,5C000400,-0724,0838,12062,032.4,045.6,0.212,754.0,01.17,0.508
2017-04-19 03:08:00,1640E-3,5C000400,-0724,0839,12082,032.4,045.6,0.212,754.0,01.17,0.508
2017-04-19 03:09:00,1877E-3,5C000400,-0724,0839,11992,032.4,045.6,0.212,754.0,01.17,0.508
2017-04-19 03:10:00,1695E-3,5C000400,-0724,0838,12052,032.4,045.6,0.212,754.0,01.17,0.508
2017-04-19 03:11:00,1737E-3,5C000400,-0724,0838,12140,032.4,045.6,0.212,754.0,01.17,0.508
2017-04-19 03:12:00,1700E-3,5C000400,-0724,0838,12132,032.4,045.6,0.212,754.0,01.17,0.508
2017-04-19 03:13:00,1885E-3,5C000400,-0724,0838,12092,032.4,045.6,0.212,754.0,01.17,0.508
2017-04-19 03:14:00,1778E-3,5C000400,-0724,0838,12009,032.4,045.6,0.212,754.0,01.17,0.508
2017-04-19 03:15:00,1708E-3,5C000400,-0724,0839,11934,032.4,045.6,0.212,754.0,01.17,0.508
2017-04-19 03:16:00,1696E-3,5C000400,-0724,0838,12086,032.4,045.6,0.212,754.0,01.17,0.508
2017-04-19 03:17:00,1741E-3,5C000400,-0724,0838,12071,032.4,045.6,0.212,754.0,01.17,0.508
2017-04-19 03:18:00,1678E-3,5C000400,-0724,0839,12004,032.4,045.6,0.212,754.0,01.17,0.508
2017-04-19 03:19:00,1698E-3,5C000400,-0724,0839,12084,032.4,045.6,0.212,754.0,01.17,0.508
2017-04-19 03:20:00,1615E-3,5C000400,-0724,0838,12058,032.5,045.6,0.212,754.0,01.17,0.508
2017-04-19 03:21:00,1749E-3,5C000400,-0724,0838,12099,032.5,045.6,0.212,754.0,01.17,0.508
2017-04-19 03:22:00,1730E-3,5C000400,-0724,0839,12061,032.5,045.6,0.211,754.0,01.17,0.508
2017-04-19 03:23:00,1667E-3,5C000400,-0724,0839,12199,032.5,045.6,0.212,754.0,01.17,0.508
2017-04-19 03:24:00,1662E-3,5C000400,-0724,0838,12098,032.5,045.6,0.212,754.0,01.17,0.508
2017-04-19 03:25:00,1731E-3,5C000400,-0724,0838,12117,032.5,045.6,0.212,754.0,01.17,0.508
2017-04-19 03:26:00,1603E-3,5C000400,-0724,0838,12013,032.5,045.6,0.212,753.9,01.17,0.508
2017-04-19 03:27:00,1646E-3,5C000400,-0724,0838,12102,032.5,045.6,0.212,753.9,01.17,0.508
2017-04-19 03:28:00,1802E-3,5C000400,-0724,0838,12068,032.5,045.6,0.212,754.0,01.17,0.508
2017-04-19 03:29:00,1764E-3,5C000400,-0724,0838,12024,032.4,045.6,0.212,753.9,01.17,0.508
2017-04-19 03:30:00,1739E-3,5C000400,-0724,0839,12002,032.3,045.6,0.211,754.0,01.17,0.508
2017-04-19 03:31:00,1584E-3,5C000400,-0724,0838,12146,032.2,045.6,0.212,753.9,01.17,0.508
2017-04-19 03:32:00,1529E-3,5C000400,-0724,0838,12090,032.0,045.6,0.212,753.9,01.17,0.508
2017-04-19 03:33:00,1710E-3,5C000400,-0724,0838,11986,031.8,045.6,0.212,753.9,01.17,0.508
2017-04-19 03:34:00,1640E-3,5C000400,-0724,0838,12167,031.6,045.6,0.213,754.0,01.17,0.508
2017-04-19 03:35:00,1666E-3,5C000400,-0724,0838,12111,031.3,045.6,0.212,754.0,01.17,0.508
2017-04-19 03:36:00,1777E-3,5C000400,-0724,0837,12070,031.1,045.6,0.213,754.0,01.17,0.508
2017-04-19 03:37:00,1723E-3,5C000400,-0724,0837,12045,030.9,045.6,0.213,754.0,01.17,0.508
2017-04-19 03:38:00,1718E-3,5C000400,-0724,0837,12060,030.8,045.5,0.213,754.0,01.17,0.508
2017-04-19 03:39:00,1624E-3,5C000400,-0724,0837,11898,030.6,045.5,0.213,754.0,01.17,0.508
2017-04-19 03:40:00,1835E-3,5C000400,-0724,0837,12139,030.5,045.5,0.214,754.0,01.17,0.508
2017-04-19 03:41:00,1631E-3,5C000400,-0724,0837,12059,030.5,045.6,0.214,754.0,01.17,0.508
2017-04-19 03:42:00,1744E-3,5C000400,-0724,0837,12118,030.4,045.5,0.214,754.0,01.17,0.508
2017-04-19 03:43:00,1754E-3,5C000400,-0724,0837,12079,030.3,045.5,0.215,754.0,01.17,0.508
2017-04-19 03:44:00,1568E-3,5C000400,-0724,0836,11887,030.3,045.5,0.215,754.0,01.17,0.508
2017-04-19 03:45:00,1848E-3,5C000400,-0724,0837,12200,030.4,045.5,0.215,754.0,01.17,0.508
2017-04-19 03:46:00,1772E-3,5C000400,-0724,0837,11982,030.5,045.5,0.215,754.0,01.17,0.508
2017-04-19 03:47:00,1709E-3,5C000400,-0724,0837,12086,030.5,045.5,0.215,754.0,01.17,0.508
2017-04-19 03:48:00,1692E-3,5C000400,-0724,0837,12107,030.6,045.5,0.215,754.0,01.17,0.508
2017-04-19 03:49:00,1568E-3,5C000400,-0724,0838,12032,030.6,045.5,0.215,754.0,01.17,0.508
2017-04-19 03:50:00,1590E-3,5C000400,-0724,0837,12147,030.7,045.5,0.215,754.0,01.17,0.508
2017-04-19 03:51:00,1708E-3,5C000400,-0724,0837,12182,030.8,045.5,0.216,754.0,01.17,0.508
2017-04-19 03:52:00,1798E-3,5C000400,-0724,0837,11937,030.9,045.5,0.216,754.0,01.17,0.508
2017-04-19 03:53:00,1839E-3,5C000400,-0724,0837,12021,030.9,045.5,0.215,754.0,01.17,0.508
2017-04-19 03:54:00,1774E-3,5C000400,-0724,0837,11889,031.0,045.6,0.215,754.0,01.17,0.508
2017-04-19 03:55:00,1704E-3,5C000400,-0724,0837,12100,031.0,045.6,0.215,754.0,01.17,0.508
2017-04-19 03:56:00,1753E-3,5C000400,-0724,0837,12060,031.1,045.5,0.215,754.0,01.17,0.508
2017-04-19 03:57:00,1600E-3,5C000400,-0724,0838,12065,031.1,045.6,0.215,754.0,01.17,0.508
2017-04-19 03:58:00,1637E-3,5C000400,-0724,0838,12030,031.2,045.6,0.215,754.0,01.17,0.508
2017-04-19 03:59:00,1656E-3,5C000400,-0724,0838,12146,031.2,045.6,0.215,753.9,01.17,0.508
2017-04-19 04:00:00,1621E-3,5C000400,-0724,0838,12055,031.3,045.6,0.215,753.9,01.17,0.508
2017-04-19 04:01:00,1682E-3,5C000400,-0724,0837,12018,031.3,045.6,0.215,753.9,01.17,0.508
2017-04-19 04:02:00,1675E-3,5C000400,-0724,0838,11962,031.4,045.6,0.215,753.9,01.17,0.508
2017-04-19 04:03:00,1699E-3,5C000400,-0724,0839,12075,031.4,045.6,0.214,753.9,01.17,0.508
2017-04-19 04:04:00,1835E-3,5C000400,-0724,0838,12083,031.5,045.6,0.214,753.9,01.17,0.508
2017-04-19 04:05:00,1897E-3,5C000400,-0724,0838,12156,031.5,045.6,0.214,753.9,01.17,0.508
2017-04-19 04:06:00,1696E-3,5C000400,-0724,0837,12051,031.6,045.6,0.215,753.9,01.17,0.508
2017-04-19 04:07:00,1802E-3,5C000400,-0724,0837,12041,031.6,045.6,0.214,753.9,01.17,0.508
2017-04-19 04:08:00,1847E-3,5C000400,-0724,0838,12198,031.7,045.6,0.214,753.9,01.17,0.508
2017-04-19 04:09:00,1775E-3,5C000400,-0724,0838,12157,031.7,045.6,0.214,753.9,01.17,0.508
2017-04-19 04:10:00,1761E-3,5C000400,-0724,0838,12131,031.7,045.6,0.214,753.9,01.17,0.508
2017-04-19 04:11:00,1656E-3,5C000400,-0724,0838,12014,031.8,045.6,0.214,754.0,01.17,0.508
2017-04-19 04:12:00,1678E-3,5C000400,-0724,0837,11947,031.8,045.6,0.214,753.9,01.17,0.508
2017-04-19 04:13:00,1660E-3,5C000400,-0724,0838,12138,031.9,045.6,0.213,753.9,01.17,0.508
2017-04-19 04:14:00,1706E-3,5C000400,-0724,0838,12000,031.9,045.6,0.213,753.9,01.17,0.508
2017-04-19 04:15:00,1670E-3,5C000400,-0724,0838,12134,031.9,045.6,0.213,753.9,01.17,0.508
2017-04-19 04:16:00,1808E-3,5C000400,-0724,0838,12102,032.0,045.6,0.213,753.9,01.17,0.508
2017-04-19 04:17:00,1525E-3,5C000400,-0724,0838,11970,031.9,045.6,0.213,753.9,01.17,0.508
2017-04-19 04:18:00,1769E-3,5C000400,-0724,0837,12062,031.9,045.6,0.213,753.9,01.17,0.508
2017-04-19 04:19:00,1653E-3,5C000400,-0724,0838,11987,031.8,045.6,0.213,754.0,01.17,0.508
2017-04-19 04:20:00,1733E-3,5C000400,-0724,0836,12039,031.6,045.6,0.213,754.0,01.17,0.508